Regional Weather Roundup
Issued by NWS San Diego, CA

Home | Current Version | Previous Version | Text Only | Print | Product List | Glossary On
Versions: 1 2 3 4 5 6 7 8 9 10 11 12 13 14 15 16 17 18 19 20 21 22 23 24 25 26 27
275
ASUS46 KSGX 221211
RWRSGX

SAN DIEGO HOURLY WEATHER ROUNDUP
NATIONAL WEATHER SERVICE SAN DIEGO CA
500 AM PDT FRI MAY 22 2015

NOTE: "FAIR" INDICATES FEW OR NO CLOUDS BELOW 12,000 FEET WITH NO
SIGNIFICANT WEATHER AND/OR OBSTRUCTIONS TO VISIBILITY.

CAZ042-043-060-061-PZZ750-775-221300-

GREATER SAN DIEGO AREA

CITY           SKY/WX    TMP DP  RH WIND       PRES   REMARKS
LINDBERGH FLD  MOCLDY    62  50  64 W9        30.02S
POINT LOMA       N/A     58  50  74 W13         N/A
NATIONAL CITY    N/A     61  53  74 W2        30.01S
CHULA VISTA      N/A     60  53  77 W3        29.94S
IMPERIAL BEACH MOCLDY    61  51  70 W10       30.01S
BROWN FIELD    PTCLDY    57  51  80 W8        30.00F
MIRAMAR MCAS   CLOUDY    62  50  64 W7        29.99S
MONTGOMERY FLD CLOUDY    59  50  72 W12       30.00S

$$

NORTH SAN DIEGO COUNTY

CITY           SKY/WX    TMP DP  RH WIND       PRES   REMARKS
CAMP PENDLETON CLOUDY    57  52  83 CALM      29.98S
OCEANSIDE AP   CLOUDY    60  51  72 W6        29.98R
OCEANSIDE HBR    N/A     61  54  76 W22       30.01S
VISTA            N/A     57  52  83 CALM      29.97S
CARLSBAD       MOCLDY    59  51  75 W9        29.98S
DEL MAR          N/A     60  54  82 W1        30.02S
LA JOLLA SCRIP   N/A    N/A N/A N/A SW12      29.98S
FALLBROOK        N/A     55  55 100 CALM      29.98S
ESCONDIDO        N/A     56  53  91 CALM      30.00S
SAN MARCOS       N/A     56  52  87 W8        29.97F
POWAY            N/A     55  52  89 CALM      30.01F

$$

EAST SAN DIEGO COUNTY

CITY           SKY/WX    TMP DP  RH WIND       PRES   REMARKS
RAMONA         CLOUDY    53  50  89 W12       29.99S
SANTEE LAKES     N/A     58  52  80 W1        30.00S
LA MESA          N/A     57  51  80 W10       29.95R
JAMUL            N/A     54  51  90 CALM      30.00S
DESCANSO N       N/A     44  42  94 SW10      29.90S
MT. LAGUNA OBS   N/A     34  34 100 SW22      29.52F WCI  22
CAMPO            N/A     48  43  82 W14G20    29.95S

$$

ORANGE COUNTY AND THE LOS ANGELES BASIN

CITY           SKY/WX    TMP DP  RH WIND       PRES   REMARKS
JOHN WAYNE AP  CLOUDY    60  51  72 W6        29.98S
LAKE FOREST FR   N/A     54  48  78 CALM      29.89S
SANTA ANA        N/A     60  52  74 CALM      29.94S
HUNTINGTON BCH   N/A     60  55  84 W3        30.00S
LOS ALAMITOS   MOCLDY    58  50  76 NW8       29.98S
FULLERTON      MOCLDY    59  49  69 W5        29.98R
LONG BEACH     MOCLDY    60  50  69 W8        29.98S
L.A. AP        MOCLDY    57  51  80 W17       29.98S
L.A. DOWNTOWN  CLOUDY    58  52  80 CALM      29.97S

$$

THE INLAND EMPIRE

CITY           SKY/WX    TMP DP  RH WIND       PRES   REMARKS
CORONA         MOCLDY    57  47  69 W7        29.99R
CHINO          CLOUDY    57  49  74 W5        29.99R
ONTARIO        CLOUDY    55  48  77 W7        29.98R
RIVERSIDE AP   CLOUDY    57  48  72 VRB5      29.98S
RIV CYN CREST    N/A     55  54  96 NW1         N/A
MORENO VALLEY    N/A     52  49  90 NW3       29.95S
MARCH ARB      MOCLDY    53  46  77 NW1       29.97S
HORSETHIEF CYN   N/A     52  43  71 W3        29.95R
PERRIS           N/A     53  48  82 W3          N/A
MENIFEE          N/A     54  49  81 NE3       30.04R
HEMET EAST       N/A     51  46  84 CALM      29.97S
FRENCH VALLEY  PTSUNNY   54  50  87 S6        29.98S
TEMECULA         N/A     54  53  94 S3        29.95S

$$

SAN BERNARDINO AND RIVERSIDE COUNTY MOUNTAINS

CITY           SKY/WX    TMP DP  RH WIND       PRES   REMARKS
BIG BEAR AP    CLOUDY    34  30  86 SW7       29.97S WCI  28
ANGELUS OAKS     N/A     37  35  92 CALM      29.90S
PINE COVE        N/A     35  35 100 N3        29.97R

$$

SOUTHERN DESERT INCLUDING THE COACHELLA VALLEY

CITY           SKY/WX    TMP DP  RH WIND       PRES   REMARKS
PALM SPRINGS   MOCLDY    62  43  49 CALM      29.87R
THOUSAND PALMS   N/A     62  43  50 CALM      29.85R
PALM DESERT      N/A     61  46  57 CALM      30.93
THERMAL        PTCLDY    64  44  48 N15       29.84R
BLYTHE         CLEAR     62  45  53 S16       29.84S
IMPERIAL AP    CLEAR     61  42  49 W14       29.88R
EL CENTRO NAS  CLEAR     63  40  42 W28G35    29.90F
YUMA AZ        CLOUDY    63  41  44 NW15G22   29.89R

$$

UPPER DESERT

CITY           SKY/WX    TMP DP  RH WIND       PRES   REMARKS
VICTORVILLE AP CLOUDY    52  37  58 SW9       29.92R
HESPERIA         N/A     49  40  71 W7        30.03S
APPLE VALLEY     N/A     51  37  59 SW3G23    30.00S
PALMDALE       MOCLDY    51  41  68 SW16      29.92S
LANCASTER      MOCLDY    51  43  74 W18       29.93S
EDWARDS AFB    CLOUDY    53  43  69 SW16      29.89S
DAGGETT        CLOUDY    59  37  44 SW21      29.87S
29 PALMS N     PTCLDY    56  38  50 W7        29.94R
NEEDLES        MOCLDY    67  39  35 W10       29.81R

$$

REGIONAL REPORTS

CITY           SKY/WX    TMP DP  RH WIND       PRES   REMARKS
SANTA BARBARA  PTCLDY    54  47  77 SW5       29.97R
SANDBERG       LGT RAIN  44  42  93 SW6       29.97S VSB<1/4
LAS VEGAS NV   CLOUDY    62  40  44 S16       29.77S
PHOENIX AZ     PTCLDY    68  36  30 E7        29.86R
TIJUANA        PTCLDY    57  48  72 W6        30.03S
ENSENADA NW      N/A     59  32  36 N2        30.01R

$$

OFFSHORE ISLANDS

CITY           SKY/WX    TMP DP  RH WIND       PRES   REMARKS
CATALINA ARPT  MOCLDY    51  48  89 W13       29.99S
SAN NICOLAS IS PTCLDY   N/A N/A N/A W14       30.00R

$$

MARINE AND OFFSHORE BUOY REPORTS

STATION/POSITION SKY/WX   TEMP    WIND        PRES    SWELL
                          AIR SEA DIR/SP/G            HT/PER/DIR
                          (F)     (DEG/KT/KT) (MB)    (FT/S/D)
TANNER BANKS               61 62  290/ 14/ 16 1016.3R   3/280/13
S CLEMENTE BASIN           60 62  290/ 14/ 17 1015.9S   2/310/13
SAN NICOLAS IS.               58                N/A     3/280/13
SO. S. ROSA ISLA           58 59  310/ 10/ 12 1015.2R   3/13
W. S. BARBARA CH           57 58  310/ 10/ 12 1015.3R   3/290/13
S. MONICA BASIN            59 62  280/ 16/ 17 1015.3R   2/260/13
S PEDRO CHANNEL               63                N/A
DANA POINT                    63                N/A     2/180/17
OCEANSIDE OFFSHR              64                N/A     2/220/13
TORREY PINES OTR              63                N/A     2/230/13
LA JOLLA 1                 61 64  270/ 10/ 14 1015.7R
MISSION BAY BUOY              64                N/A     2/230/13
SAN DIEGO BAY                 68              1016.3S
POINT LOMA SOUTH              63                N/A     2/230/13

$$




USA.gov is the U.S. government's official web portal to all federal, state and local government web resources and services.